Time,TemperatureF,DewpointF,PressureIn,WindDirection,WindDirectionDegrees,WindSpeedMPH,WindSpeedGustMPH,Humidity,HourlyPrecipIn,Conditions,Clouds,dailyrainin,SolarRadiationWatts/m^2,SoftwareType,DateUTC
2013-05-01 00:00:00,29.2,24.7,29.86,WNW,296,0.0,0.0,83,0.00,,,0.33,0,Wunderground v.1.15,2013-05-01 06:00:00,
2013-05-01 00:10:00,28.7,26.7,29.86,WNW,296,0.0,0.0,92,0.00,,,0.00,0,Wunderground v.1.15,2013-05-01 06:10:00,
2013-05-01 00:20:00,28.6,25.2,29.86,WNW,296,0.0,0.0,87,0.00,,,0.00,0,Wunderground v.1.15,2013-05-01 06:20:00,
2013-05-01 00:30:00,28.7,25.6,29.86,WNW,296,0.0,0.0,88,0.00,,,0.00,0,Wunderground v.1.15,2013-05-01 06:30:00,
2013-05-01 00:40:00,28.9,25.8,29.86,WNW,296,0.0,0.0,88,0.00,,,0.00,0,Wunderground v.1.15,2013-05-01 06:40:00,
2013-05-01 00:50:00,28.7,25.6,29.86,WNW,296,0.0,0.0,88,0.00,,,0.00,0,Wunderground v.1.15,2013-05-01 06:50:00,
2013-05-01 01:00:00,28.5,25.4,29.86,WNW,296,0.0,0.0,88,0.00,,,0.00,0,Wunderground v.1.15,2013-05-01 07:00:00,
2013-05-01 01:10:00,28.4,25.6,29.88,WNW,296,0.0,0.0,89,0.00,,,0.00,0,Wunderground v.1.15,2013-05-01 07:10:00,
2013-05-01 01:20:00,28.3,25.5,29.88,WNW,291,0.0,0.0,89,0.00,,,0.01,0,Wunderground v.1.15,2013-05-01 07:20:00,
2013-05-01 01:30:00,28.0,25.2,29.88,WSW,238,0.0,0.0,89,0.04,,,0.02,0,Wunderground v.1.15,2013-05-01 07:30:00,
2013-05-01 01:40:00,28.0,25.4,29.89,WSW,238,0.0,0.0,90,0.04,,,0.02,0,Wunderground v.1.15,2013-05-01 07:40:00,
2013-05-01 01:50:00,27.6,25.1,29.90,SSW,193,0.0,0.0,90,0.00,,,0.02,0,Wunderground v.1.15,2013-05-01 07:50:00,
2013-05-01 02:00:00,27.5,25.0,29.89,SSE,166,0.0,0.0,90,0.00,,,0.02,0,Wunderground v.1.15,2013-05-01 08:00:00,
2013-05-01 02:10:00,27.6,25.3,29.89,SSE,165,0.0,0.0,91,0.00,,,0.03,0,Wunderground v.1.15,2013-05-01 08:10:00,
2013-05-01 02:20:00,27.5,25.0,29.90,SE,142,0.0,0.0,90,0.06,,,0.04,0,Wunderground v.1.15,2013-05-01 08:20:00,
2013-05-01 02:30:00,27.2,24.7,29.89,SSE,154,0.0,0.0,90,0.00,,,0.04,0,Wunderground v.1.15,2013-05-01 08:30:00,
2013-05-01 02:50:00,26.8,24.3,29.90,SSE,154,0.0,0.0,90,0.00,,,0.04,0,Wunderground v.1.15,2013-05-01 08:50:00,
2013-05-01 03:00:00,26.7,24.2,29.90,SE,136,0.0,0.0,90,0.00,,,0.04,0,Wunderground v.1.15,2013-05-01 09:00:00,
2013-05-01 03:10:00,26.5,24.2,29.90,SE,136,0.0,0.0,91,0.00,,,0.04,0,Wunderground v.1.15,2013-05-01 09:10:00,
2013-05-01 03:21:00,26.5,24.2,29.91,SE,136,0.0,0.0,91,0.00,,,0.04,0,Wunderground v.1.15,2013-05-01 09:21:00,
2013-05-01 03:30:00,26.7,24.4,29.91,SE,136,0.0,0.0,91,0.00,,,0.04,0,Wunderground v.1.15,2013-05-01 09:30:00,
2013-05-01 03:40:00,26.9,24.4,29.91,SE,136,0.0,0.0,90,0.00,,,0.04,0,Wunderground v.1.15,2013-05-01 09:40:00,
2013-05-01 03:50:00,26.6,23.8,29.92,ESE,113,0.0,0.0,89,0.00,,,0.04,0,Wunderground v.1.15,2013-05-01 09:50:00,
2013-05-01 04:00:00,26.4,23.6,29.92,ESE,113,0.0,0.0,89,0.00,,,0.04,0,Wunderground v.1.15,2013-05-01 10:00:00,
2013-05-01 04:10:00,26.6,23.8,29.93,ESE,113,0.0,0.0,89,0.00,,,0.04,0,Wunderground v.1.15,2013-05-01 10:10:00,
2013-05-01 04:20:00,26.7,23.6,29.94,ESE,113,0.0,0.0,88,0.00,,,0.04,0,Wunderground v.1.15,2013-05-01 10:20:00,
2013-05-01 04:30:00,26.6,23.5,29.94,ESE,113,0.0,0.0,88,0.00,,,0.04,0,Wunderground v.1.15,2013-05-01 10:30:00,
2013-05-01 04:40:00,26.5,23.4,29.95,ESE,113,0.0,0.0,88,0.00,,,0.04,0,Wunderground v.1.15,2013-05-01 10:40:00,
2013-05-01 04:50:00,26.1,23.0,29.95,ESE,113,0.0,0.0,88,0.00,,,0.04,0,Wunderground v.1.15,2013-05-01 10:50:00,
2013-05-01 05:10:00,25.4,22.3,29.97,ESE,113,0.0,0.0,88,0.00,,,0.04,0,Wunderground v.1.15,2013-05-01 11:10:00,
2013-05-01 05:20:00,25.3,22.2,29.98,ESE,113,0.0,0.0,88,0.00,,,0.04,0,Wunderground v.1.15,2013-05-01 11:20:00,
2013-05-01 05:30:00,25.3,22.5,29.98,ESE,113,0.0,0.0,89,0.00,,,0.04,0,Wunderground v.1.15,2013-05-01 11:30:00,
2013-05-01 05:40:00,25.4,22.6,30.00,ESE,113,0.0,0.0,89,0.00,,,0.04,0,Wunderground v.1.15,2013-05-01 11:40:00,
2013-05-01 05:50:00,25.8,23.0,30.00,ESE,113,0.0,0.0,89,0.00,,,0.04,0,Wunderground v.1.15,2013-05-01 11:50:00,
2013-05-01 06:00:00,26.1,23.0,30.00,ESE,113,0.0,0.0,88,0.00,,,0.04,0,Wunderground v.1.15,2013-05-01 12:00:00,
2013-05-01 06:10:00,26.0,22.9,30.01,NNE,16,0.0,0.0,88,0.00,,,0.04,0,Wunderground v.1.15,2013-05-01 12:10:00,
2013-05-01 06:20:00,24.9,21.3,30.03,NNE,23,0.0,0.0,86,0.00,,,0.04,0,Wunderground v.1.15,2013-05-01 12:20:00,
2013-05-01 06:30:00,24.2,20.6,30.04,North,355,0.0,0.0,86,0.00,,,0.04,0,Wunderground v.1.15,2013-05-01 12:30:00,
2013-05-01 06:40:00,23.8,20.5,30.05,NNE,27,0.0,0.0,87,0.00,,,0.04,0,Wunderground v.1.15,2013-05-01 12:40:00,
2013-05-01 06:50:00,23.3,20.0,30.06,NNE,33,0.0,0.0,87,0.00,,,0.04,5,Wunderground v.1.15,2013-05-01 12:50:00,
2013-05-01 07:00:00,22.9,19.9,30.08,NE,50,0.0,0.0,88,0.00,,,0.04,9,Wunderground v.1.15,2013-05-01 13:00:00,
2013-05-01 07:10:00,22.6,19.6,30.09,ENE,73,0.0,0.0,88,0.00,,,0.04,11,Wunderground v.1.15,2013-05-01 13:10:00,
2013-05-01 07:20:00,22.8,20.0,30.10,South,178,0.0,0.0,89,0.00,,,0.05,12,Wunderground v.1.15,2013-05-01 13:20:00,
2013-05-01 07:30:00,22.8,19.5,30.11,NE,40,0.0,0.0,87,0.00,,,0.05,21,Wunderground v.1.15,2013-05-01 13:30:00,
2013-05-01 07:40:00,22.5,19.2,30.12,NE,42,0.0,0.0,87,0.18,,,0.08,25,Wunderground v.1.15,2013-05-01 13:40:00,
2013-05-01 07:50:00,22.2,18.9,30.12,NE,42,0.0,0.0,87,0.13,,,0.10,23,Wunderground v.1.15,2013-05-01 13:50:00,
2013-05-01 08:00:00,21.9,18.6,30.13,NE,42,0.0,0.0,87,0.06,,,0.10,28,Wunderground v.1.15,2013-05-01 14:00:00,
2013-05-01 08:20:00,22.1,18.8,30.14,NNE,32,0.0,0.0,87,0.06,,,0.12,47,Wunderground v.1.15,2013-05-01 14:20:00,
2013-05-01 08:30:00,21.8,18.5,30.15,ENE,64,0.0,0.0,87,0.00,,,0.12,54,Wunderground v.1.15,2013-05-01 14:30:00,
2013-05-01 08:40:00,22.1,18.8,30.15,NE,55,0.0,0.0,87,0.00,,,0.12,69,Wunderground v.1.15,2013-05-01 14:40:00,
2013-05-01 08:50:00,22.1,18.8,30.16,ENE,60,0.0,0.0,87,0.00,,,0.12,63,Wunderground v.1.15,2013-05-01 14:50:00,
2013-05-01 09:00:00,21.9,18.9,30.17,East,83,0.0,0.0,88,0.00,,,0.12,65,Wunderground v.1.15,2013-05-01 15:00:00,
2013-05-01 09:10:00,20.1,16.9,30.18,East,89,0.0,0.0,87,0.00,,,0.12,79,Wunderground v.1.15,2013-05-01 15:10:00,
2013-05-01 09:20:00,19.7,16.7,30.19,ENE,57,0.0,0.0,88,0.00,,,0.12,72,Wunderground v.1.15,2013-05-01 15:20:00,
2013-05-01 09:30:00,19.6,16.6,30.19,ENE,68,0.0,0.0,88,0.00,,,0.12,97,Wunderground v.1.15,2013-05-01 15:30:00,
2013-05-01 09:40:00,19.9,16.9,30.20,East,80,0.0,0.0,88,0.00,,,0.12,72,Wunderground v.1.15,2013-05-01 15:40:00,
2013-05-01 09:50:00,20.2,17.2,30.21,ENE,65,0.0,0.0,88,0.00,,,0.12,144,Wunderground v.1.15,2013-05-01 15:50:00,
2013-05-01 10:00:00,20.2,17.0,30.21,ENE,68,0.0,0.0,87,0.00,,,0.12,107,Wunderground v.1.15,2013-05-01 16:00:00,
2013-05-01 10:10:00,20.5,17.2,30.23,ENE,63,0.0,0.0,87,0.00,,,0.12,165,Wunderground v.1.15,2013-05-01 16:10:00,
2013-05-01 10:20:00,21.1,17.6,30.23,ENE,66,0.0,0.0,86,0.00,,,0.12,200,Wunderground v.1.15,2013-05-01 16:20:00,
2013-05-01 10:41:00,21.2,17.7,30.24,NE,53,0.0,0.0,86,0.00,,,0.12,197,Wunderground v.1.15,2013-05-01 16:41:00,
2013-05-01 10:50:00,21.3,17.5,30.25,ENE,60,0.0,0.0,85,0.00,,,0.12,204,Wunderground v.1.15,2013-05-01 16:50:00,
2013-05-01 11:00:00,21.5,17.7,30.25,ENE,58,0.0,0.0,85,0.00,,,0.12,207,Wunderground v.1.15,2013-05-01 17:00:00,
2013-05-01 11:10:00,20.9,16.8,30.27,ENE,59,0.0,0.0,84,0.00,,,0.12,174,Wunderground v.1.15,2013-05-01 17:10:00,
2013-05-01 11:21:00,20.9,17.1,30.27,NE,55,0.0,0.0,85,0.00,,,0.12,171,Wunderground v.1.15,2013-05-01 17:21:00,
2013-05-01 11:30:00,20.6,16.5,30.28,ENE,66,0.0,0.0,84,0.00,,,0.12,199,Wunderground v.1.15,2013-05-01 17:30:00,
2013-05-01 11:40:00,20.8,17.3,30.28,ENE,57,5.0,8.0,86,0.00,,,0.12,195,Wunderground v.1.15,2013-05-01 17:40:00,
2013-05-01 11:50:00,20.3,16.5,30.28,ENE,69,8.0,8.0,85,0.00,,,0.12,195,Wunderground v.1.15,2013-05-01 17:50:00,
2013-05-01 12:00:00,20.3,16.5,30.29,ENE,66,8.0,9.0,85,0.00,,,0.12,209,Wunderground v.1.15,2013-05-01 18:00:00,
2013-05-01 12:10:00,20.9,17.4,30.30,ENE,74,8.0,8.0,86,0.00,,,0.12,204,Wunderground v.1.15,2013-05-01 18:10:00,
2013-05-01 12:20:00,20.8,17.0,30.30,ENE,69,7.0,7.0,85,0.00,,,0.12,169,Wunderground v.1.15,2013-05-01 18:20:00,
2013-05-01 12:30:00,20.4,16.9,30.31,ENE,74,8.0,9.0,86,0.00,,,0.12,171,Wunderground v.1.15,2013-05-01 18:30:00,
2013-05-01 12:40:00,20.4,16.9,30.32,ENE,76,8.0,9.0,86,0.00,,,0.12,142,Wunderground v.1.15,2013-05-01 18:40:00,
2013-05-01 12:50:00,19.7,16.2,30.33,ENE,65,8.0,10.0,86,0.00,,,0.12,148,Wunderground v.1.15,2013-05-01 18:50:00,
2013-05-01 13:10:00,19.5,15.7,30.34,ENE,58,7.0,7.0,85,0.00,,,0.12,151,Wunderground v.1.15,2013-05-01 19:10:00,
2013-05-01 13:20:00,19.7,15.9,30.36,NE,47,7.0,7.0,85,0.00,,,0.12,146,Wunderground v.1.15,2013-05-01 19:20:00,
2013-05-01 13:30:00,19.8,16.0,30.36,East,81,7.0,7.0,85,0.00,,,0.12,155,Wunderground v.1.15,2013-05-01 19:30:00,
2013-05-01 13:40:00,19.7,15.6,30.37,ENE,68,7.0,7.0,84,0.00,,,0.12,142,Wunderground v.1.15,2013-05-01 19:40:00,
2013-05-01 13:50:00,20.0,16.5,30.38,ENE,61,6.0,7.0,86,0.00,,,0.12,146,Wunderground v.1.15,2013-05-01 19:50:00,
2013-05-01 14:00:00,20.2,16.7,30.39,ENE,63,6.0,7.0,86,0.00,,,0.12,172,Wunderground v.1.15,2013-05-01 20:00:00,
2013-05-01 14:10:00,20.4,16.6,30.39,ENE,67,7.0,7.0,85,0.00,,,0.12,179,Wunderground v.1.15,2013-05-01 20:10:00,
2013-05-01 14:20:00,20.5,17.0,30.40,NE,41,6.0,6.0,86,0.00,,,0.12,169,Wunderground v.1.15,2013-05-01 20:20:00,
2013-05-01 14:30:00,21.0,17.2,30.41,NE,45,5.0,5.0,85,0.00,,,0.12,176,Wunderground v.1.15,2013-05-01 20:30:00,
2013-05-01 14:40:00,20.6,16.5,30.41,ENE,71,7.0,8.0,84,0.00,,,0.12,197,Wunderground v.1.15,2013-05-01 20:40:00,
2013-05-01 14:50:00,20.3,16.5,30.42,ENE,57,8.0,8.0,85,0.00,,,0.12,183,Wunderground v.1.15,2013-05-01 20:50:00,
2013-05-01 15:00:00,20.5,17.0,30.43,NE,56,8.0,8.0,86,0.00,,,0.12,167,Wunderground v.1.15,2013-05-01 21:00:00,
2013-05-01 15:10:00,20.4,16.9,30.43,ENE,68,7.0,8.0,86,0.00,,,0.12,144,Wunderground v.1.15,2013-05-01 21:10:00,
2013-05-01 15:20:00,20.3,17.0,30.44,ENE,77,8.0,10.0,87,0.00,,,0.12,132,Wunderground v.1.15,2013-05-01 21:20:00,
2013-05-01 15:30:00,20.3,16.8,30.45,ENE,67,8.0,8.0,86,0.00,,,0.12,128,Wunderground v.1.15,2013-05-01 21:30:00,
2013-05-01 15:40:00,20.3,17.0,30.45,ENE,61,7.0,9.0,87,0.00,,,0.12,93,Wunderground v.1.15,2013-05-01 21:40:00,
2013-05-01 15:50:00,20.0,16.5,30.46,ENE,69,8.0,8.0,86,0.00,,,0.12,90,Wunderground v.1.15,2013-05-01 21:50:00,
2013-05-01 16:00:00,20.1,16.9,30.46,NE,48,7.0,7.0,87,0.00,,,0.12,116,Wunderground v.1.15,2013-05-01 22:00:00,
2013-05-01 16:10:00,20.2,16.7,30.47,ENE,63,7.0,7.0,86,0.00,,,0.12,118,Wunderground v.1.15,2013-05-01 22:10:00,
2013-05-01 16:20:00,20.1,16.9,30.47,East,82,6.0,8.0,87,0.00,,,0.12,113,Wunderground v.1.15,2013-05-01 22:20:00,
2013-05-01 16:40:00,19.7,16.5,30.49,East,95,6.0,6.0,87,0.00,,,0.12,111,Wunderground v.1.15,2013-05-01 22:40:00,
2013-05-01 16:50:00,19.9,16.7,30.49,East,98,5.0,6.0,87,0.00,,,0.12,93,Wunderground v.1.15,2013-05-01 22:50:00,
2013-05-01 17:00:00,19.7,16.2,30.50,East,88,6.0,6.0,86,0.00,,,0.12,90,Wunderground v.1.15,2013-05-01 23:00:00,
2013-05-01 17:10:00,19.9,16.7,30.51,ENE,65,4.0,4.0,87,0.00,,,0.12,84,Wunderground v.1.15,2013-05-01 23:10:00,
2013-05-01 17:20:00,20.2,16.7,30.51,ENE,77,3.0,5.0,86,0.00,,,0.12,83,Wunderground v.1.15,2013-05-01 23:20:00,
2013-05-01 17:30:00,20.0,16.5,30.52,ENE,68,4.0,7.0,86,0.00,,,0.12,84,Wunderground v.1.15,2013-05-01 23:30:00,
2013-05-01 17:40:00,20.0,16.5,30.53,NE,46,5.0,5.0,86,0.00,,,0.12,74,Wunderground v.1.15,2013-05-01 23:40:00,
2013-05-01 17:50:00,20.0,16.5,30.53,NE,55,4.0,4.0,86,0.00,,,0.12,56,Wunderground v.1.15,2013-05-01 23:50:00,
2013-05-01 18:00:00,19.7,16.5,30.54,ENE,59,5.0,5.0,87,0.00,,,0.12,65,Wunderground v.1.15,2013-05-02 00:00:00,
2013-05-01 18:10:00,19.8,16.6,30.55,ENE,59,3.0,3.0,87,0.00,,,0.12,51,Wunderground v.1.15,2013-05-02 00:10:00,
2013-05-01 18:20:00,19.8,16.3,30.55,NNE,28,3.0,4.0,86,0.00,,,0.12,47,Wunderground v.1.15,2013-05-02 00:20:00,
2013-05-01 18:30:00,19.7,15.9,30.55,NE,48,3.0,3.0,85,0.00,,,0.12,44,Wunderground v.1.15,2013-05-02 00:30:00,
2013-05-01 18:50:00,19.7,16.2,30.56,NNE,30,2.0,2.0,86,0.00,,,0.12,25,Wunderground v.1.15,2013-05-02 00:50:00,
2013-05-01 19:00:00,20.0,16.5,30.57,NNE,29,2.0,5.0,86,0.00,,,0.12,18,Wunderground v.1.15,2013-05-02 01:00:00,
2013-05-01 19:11:00,19.7,16.2,30.58,NNE,30,3.0,3.0,86,0.00,,,0.12,16,Wunderground v.1.15,2013-05-02 01:11:00,
2013-05-01 19:20:00,19.2,16.0,30.58,NNE,26,3.0,3.0,87,0.00,,,0.12,11,Wunderground v.1.15,2013-05-02 01:20:00,
2013-05-01 19:30:00,19.0,15.8,30.59,NE,42,4.0,4.0,87,0.00,,,0.12,5,Wunderground v.1.15,2013-05-02 01:30:00,
2013-05-01 19:40:00,18.8,15.6,30.60,NE,51,4.0,4.0,87,0.00,,,0.12,0,Wunderground v.1.15,2013-05-02 01:40:00,
2013-05-01 19:50:00,18.7,15.7,30.61,NE,35,3.0,3.0,88,0.00,,,0.12,0,Wunderground v.1.15,2013-05-02 01:50:00,
2013-05-01 20:00:00,18.7,15.7,30.62,NE,42,3.0,3.0,88,0.00,,,0.12,0,Wunderground v.1.15,2013-05-02 02:00:00,
2013-05-01 20:10:00,18.4,15.7,30.63,ENE,66,4.0,4.0,89,0.00,,,0.12,0,Wunderground v.1.15,2013-05-02 02:10:00,
2013-05-01 20:20:00,18.3,15.6,30.63,ENE,65,5.0,5.0,89,0.00,,,0.12,0,Wunderground v.1.15,2013-05-02 02:20:00,
2013-05-01 20:30:00,18.1,15.4,30.64,ENE,71,6.0,7.0,89,0.00,,,0.12,0,Wunderground v.1.15,2013-05-02 02:30:00,
2013-05-01 20:40:00,17.9,15.2,30.65,ENE,72,5.0,5.0,89,0.00,,,0.12,0,Wunderground v.1.15,2013-05-02 02:40:00,
2013-05-01 20:50:00,17.7,14.8,30.65,ENE,61,5.0,7.0,88,0.00,,,0.12,0,Wunderground v.1.15,2013-05-02 02:50:00,
2013-05-01 21:00:00,17.8,14.8,30.66,NE,35,3.0,3.0,88,0.00,,,0.12,0,Wunderground v.1.15,2013-05-02 03:00:00,
2013-05-01 21:10:00,17.8,14.8,30.67,NE,34,3.0,3.0,88,0.00,,,0.12,0,Wunderground v.1.15,2013-05-02 03:10:00,
2013-05-01 21:20:00,17.9,14.9,30.67,NNE,28,1.0,1.0,88,0.00,,,0.12,0,Wunderground v.1.15,2013-05-02 03:20:00,
2013-05-01 21:30:00,18.0,15.0,30.68,NNE,28,0.0,0.0,88,0.00,,,0.12,0,Wunderground v.1.15,2013-05-02 03:30:00,
2013-05-01 21:40:00,18.2,15.2,30.68,NNE,28,0.0,0.0,88,0.00,,,0.12,0,Wunderground v.1.15,2013-05-02 03:40:00,
2013-05-01 21:50:00,18.4,15.4,30.69,NNE,28,0.0,0.0,88,0.00,,,0.12,0,Wunderground v.1.15,2013-05-02 03:50:00,
2013-05-01 22:00:00,18.5,15.3,30.69,NNE,28,0.0,0.0,87,0.00,,,0.12,0,Wunderground v.1.15,2013-05-02 04:00:00,
2013-05-01 22:20:00,17.9,14.2,30.70,NNE,28,0.0,0.0,85,0.00,,,0.12,0,Wunderground v.1.15,2013-05-02 04:20:00,
2013-05-01 22:30:00,17.3,13.3,30.70,NNE,28,0.0,0.0,84,0.00,,,0.12,0,Wunderground v.1.15,2013-05-02 04:30:00,
2013-05-01 22:40:00,16.3,12.0,30.70,NNE,28,0.0,0.0,83,0.00,,,0.12,0,Wunderground v.1.15,2013-05-02 04:40:00,
2013-05-01 22:50:00,15.2,11.0,30.70,NNE,28,0.0,0.0,83,0.00,,,0.12,0,Wunderground v.1.15,2013-05-02 04:50:00,
2013-05-01 23:00:00,14.4,10.4,30.70,NNE,28,0.0,0.0,84,0.00,,,0.12,0,Wunderground v.1.15,2013-05-02 05:00:00,
2013-05-01 23:10:00,13.9,10.0,30.71,NNE,28,0.0,0.0,84,0.00,,,0.12,0,Wunderground v.1.15,2013-05-02 05:10:00,
2013-05-01 23:20:00,13.1,9.2,30.71,NNE,28,0.0,0.0,84,0.00,,,0.12,0,Wunderground v.1.15,2013-05-02 05:20:00,
2013-05-01 23:30:00,12.7,8.8,30.72,North,355,0.0,0.0,84,0.00,,,0.12,0,Wunderground v.1.15,2013-05-02 05:30:00,
2013-05-01 23:40:00,12.5,8.8,30.72,NNW,336,0.0,0.0,85,0.00,,,0.12,0,Wunderground v.1.15,2013-05-02 05:40:00,
2013-05-01 23:50:00,12.3,8.7,30.73,NW,309,1.0,1.0,85,0.00,,,0.12,0,Wunderground v.1.15,2013-05-02 05:50:00,